www.pogodaiklimat.ru

АРХИВ ПОГОДЫ в Гранд-Рапидсе

Время (UTC), дата Ветер
(напр.,м/с)
 
Видим.   Явления Облачность Т
(С)
Тd
(С)
f
(%)
Тe
(С)
Тes
(С)
Комфортность

P
(гПа)

Po
(гПа)
Тmin
(С)
Tmax
(С)
R
(мм)
SD
(см)
08:53 14.07 СВ  16 км    5/0 4500 м
[средняя верхняя] 
+17.8  +11.7  67  +19  +19    1020.0  991.6         
09:53 14.07 В  16 км    5/0 4500 м
[средняя верхняя] 
+17.2  +11.1  67  +18  +18    1020.4  991.9         
10:53 14.07 В  16 км    2/0 7500 м
[верхняя] 
+18.9  +12.2  65  +21  +21  комфорт  1021.1  992.6  +16.7  +20.6     
11:53 14.07 нст  16 км    2/0 7500 м
[верхняя] 
+20.6  +12.2  59  +24  +26  комфорт  1021.9  993.2         
12:53 14.07 В  16 км    2/0 7500 м
[верхняя] 
+21.7  +12.2  55  +24  +29  комфорт  1021.6  992.9         
13:53 14.07   16 км    2/0 7500 м
[верхняя] 
+23.3  +12.2  50  +26  +38  жарко  1021.3  992.6         
14:53 14.07   16 км    2/0 7500 м
[верхняя] 
+25.0  +12.8  47  +27  +44  жарко  1021.1  992.6         
15:53 14.07 нст  16 км    2/0 7500 м
[верхняя] 
+26.7  +11.7  39  +28  +45  жарко  1020.8  992.2         
16:53 14.07 нст  16 км    5/0 7500 м
[верхняя] 
+27.8  +12.8  40  +29  +45  жарко  1020.4  991.9  +18.3  +28.3     
17:53 14.07 нст  16 км    5/0 7500 м
[верхняя] 
+28.9  +13.3  38  +30  +45  жарко  1020.1  991.6         
18:53 14.07 З  16 км    5/0 7500 м
[верхняя] 
+29.4  +12.8  36  +31  +44  жарко  1020.1  991.6         
19:53 14.07   16 км    2/0 7500 м
[верхняя] 
+29.4  +13.3  37  +31  +50  жарко  1019.6  990.9         
20:53 14.07   16 км    2/0 7500 м
[верхняя] 
+30.0  +12.8  35  +31  +45  жарко  1019.3  990.6         
21:53 14.07   16 км    2/0 7500 м
[верхняя] 
+30.0  +13.3  36  +31  +40  жарко  1019.1  990.6         
22:53 14.07 В  16 км    2/0 7500 м
[верхняя] 
+28.3  +14.4  43  +31  +33  душно  1018.7  989.9  +27.8  +30.6     
23:53 14.07 В  16 км    2/0 7500 м
[верхняя] 
+26.1  +15.0  50  +29  +30  жарко  1018.5  989.9         
00:53 15.07 ЮВ  16 км    2/0 7500 м
[верхняя] 
+23.9  +15.0  57  +27  +27  жарко  1018.9  990.3         
01:53 15.07 В  16 км    5/0 2700 м
[средняя верхняя] 
+22.8  +15.6  64  +27  +27  душно  1019.2  990.6         
02:53 15.07   16 км    5/0 2700 м
[средняя верхняя] 
+22.2  +15.6  66  +26  +26  душно  1019.4  990.9         
03:53 15.07   16 км    8/0 2700 м
[средняя] 
+21.1  +16.1  73  +24  +24  комфорт  1019.2  990.6         
04:53 15.07   16 км    ясно  +20.0  +16.1  78  +22  +22  комфорт  1018.6  989.9  +20.0  +27.8     
05:53 15.07 ЮВ  16 км    ясно  +19.4  +15.6  79  +22  +22  комфорт  1018.1  989.6         
06:53 15.07 СВ  16 км    5/5 1500 м  +19.4  +15.6  79  +22  +22  комфорт  1017.8  989.3         
07:53 15.07 В  16 км    ясно  +19.4  +15.0  76  +22  +22  комфорт  1017.5  988.9         
08:53 15.07 ЮВ  16 км    5/0 7500 м
[верхняя] 
+18.3  +15.0  81  +19  +19    1017.5  988.9         
09:53 15.07 Ю  16 км    8/0 7500 м
[верхняя] 
+19.4  +15.0  76  +21  +21  комфорт  1017.7  989.3         
10:53 15.07 Ю  16 км    8/2 1350 м
[верхняя] 
+21.1  +16.7  76  +25  +25  комфорт  1017.8  989.3  +18.3  +21.1     
11:53 15.07 ЮЗ  16 км    8/2 1380 м
[верхняя] 
+24.4  +18.3  69  +29  +30  душно  1018.4  989.9         
12:53 15.07 З  16 км    8/8 1500 м
[верхняя] 
+26.7  +20.0  67  +33  +33  очень
душно 
1018.1  989.6         
13:53 15.07 ЮЗ  16 км    5/2 1500 м
[верхняя] 
+28.3  +21.1  65  +36  +42  очень
душно 
1017.7  989.3         
14:53 15.07 ЮЗ  16 км    5/2 1050 м
[верхняя] 
+30.0  +22.2  63  +39  +44  очень
душно 
1017.2  988.9         
15:53 15.07 ЮЗ  16 км    8/8 1020 м
[верхняя] 
+30.6  +22.2  61  +40  +41  очень
душно 
1016.7  988.3         
16:53 15.07 З  7
{11} 
16 км    8/8 1110 м
[верхняя] 
+30.6  +21.1  57  +38  +39  очень
душно 
1016.4  988.0  +21.1  +31.7     
17:53 15.07 З  7
{10} 
16 км    8/8 1140 м
[верхняя] 
+31.1  +21.7  57  +39  +40  очень
душно 
1016.0  987.6         
18:53 15.07 ЮЗ  8
{11} 
16 км    8/5 1140 м
[верхняя] 
+31.7  +21.1  53  +39  +40  очень
душно 
1015.2  987.0         
19:53 15.07 ЮЗ  8
{13} 
16 км    2/2 1320 м
[верхняя] 
+32.2  +17.8  42  +36  +37  очень
душно 
1014.9  986.6         
20:53 15.07 ЮЗ  16 км    2/2 1320 м
[верхняя] 
+31.7  +17.8  44  +36  +37  очень
душно 
1014.6  986.3         
21:53 15.07 ЮЗ  7
{13} 
16 км    2/2 1500 м
[верхняя] 
+31.1  +18.3  46  +36  +37  очень
душно 
1014.8  986.3         
22:53 15.07 З  9
{13} 
16 км    2/2 1500 м
[верхняя] 
+30.6  +18.3  48  +35  +35  очень
душно 
1015.1  986.6  +30.6  +32.2     
23:53 15.07 ЮЗ  16 км    5/2 1500 м
[средняя верхняя] 
+28.9  +18.3  53  +34  +34  очень
душно 
1014.6  986.3         
00:53 16.07 ЮЗ  16 км    5/0 4200 м
[средняя верхняя] 
+28.3  +18.3  55  +33  +33  очень
душно 
1014.6  986.3         
01:53 16.07 ЮЗ  16 км    2/0 7500 м
[верхняя] 
+27.2  +18.3  58  +32  +32  очень
душно 
1015.2  987.0         
02:53 16.07 ЮЗ  16 км    2/0 4200 м
[средняя верхняя] 
+26.7  +17.8  58  +31  +31  душно  1015.7  987.6         
03:53 16.07 ЮЗ  16 км    ясно  +25.6  +17.2  60  +30  +30  душно  1015.8  987.6         
04:53 16.07 ЮЗ  16 км    ясно  +25.0  +17.2  62  +29  +29  душно  1015.2  987.0  +25.0  +30.6     
05:53 16.07 ЮЗ  16 км    ясно  +23.3  +17.8  71  +29  +29  душно  1014.8  986.6         
06:53 16.07 ЮЗ  16 км    ясно  +22.8  +17.8  73  +28  +28  душно  1014.3  986.0         
07:53 16.07 Ю  16 км    2/2 1800 м  +22.2  +17.8  76  +27  +27  душно  1014.1  986.0         

 

Местоположение метеостанции Gerald R. Ford International Airport: широта 42.8808 долгота -85.5228 высота над уровнем моря 242 м.

В архиве по умолчанию представлена погода в Гранд-Рапидсе за последние 1-2 суток. Обновление информации о фактической погоде в базе происходит ежечасно! Архивные данные за месяц целиком и за предыдущие месяцы Вы можете получить, выбрав интересующий диапазон дат из раскрывающегося списка и нажав кнопку "Ввод!".

Внимание! Архив погоды МЕТАР в базе сайта в настоящее время начинается c 1 января 2011 г. Нет смысла пытаться выбрать более раннюю дату.

Внимание! Время в таблицах - всемирное. Для получения местного времени необходимо прибавить поправку, которая в Гранд-Рапидсе равна -5 ч.

Ветер - указаны скорость ветра в м/с и направление, откуда дует ветер: С - северный, СВ - северо-восточный, В - восточный, ЮВ - юго-восточный, Ю - южный, ЮЗ - юго-западный, З - западный, СЗ - северо-западный.
Видимость - горизонтальная дальность видимости в метрах или километрах. При видимости от 1 до 10 км при отсутствии осадков обычно наблюдается дымка, при ухудшении видимости до 1 км и менее - туман. В сухую погоду видимость может ухудшаться дымом, пылью или мглою.
Атмосферные явления - указаны явления, наблюдавшиеся в указанный момент времени.
Облачность - указаны через наклонную черту верхняя и нижняя облачность в баллах и высота нижней границы облаков в метрах. Внимание: облачность, как и прочие метеорологические величины в США измеряются автоматическими метеостанциями. Указанные значения в баллах носят условный характер и показывают процент времени, в течение которого, в среднем, лазерный луч высотомера отражался от облаков обратно.
T - Температура воздуха - температура, измеренная на высоте 2 м над землей.
Td - Температура точки росы - температура, при понижении до которой содержащийся в воздухе водяной пар достигнет насыщения.
f - Относительная влажность воздуха - влажноcть воздуха, измеренная на высоте 2 м над землей.
Te - Эффективная температура - температура, которую ощущает одетый по сезону человек в тени. Характеристика душности погоды. При расчете учитывается влияние влажности воздуха и скорости ветра на теплоощущения человека.
Tes - Эффективная температура на солнце - температура, которую ощущает человек, с поправкой на солнечный нагрев. Характеристика знойности погоды. Зависит от высоты солнца над горизонтом, облачности и скорости ветра. Ночью, в пасмурную погоду, а также при ветре 12 м/с и более поправка равна нулю.
P - Атмосферное давление - приведенное к уровню моря атмосферное давление.
Po - Атмосферное давление - измеренное на уровне метеостанции атмосферное давление.
Tmin - Минимальная температура - минимум температуры воздуха на высоте 2 м над землей.
Tmax - Максимальная температура - максимум температуры воздуха на высоте 2 м над землей.
R - Количество осадков - Количество выпавших осадков за 3 или 6 часов, мм.
SD - Снежный покров - Высота снежного покрова, см.